COSMOS 2361 [-]

Last updated on Wed Jun 28 2023 00:03:31 GMT+0000 (Coordinated Universal Time)

1 25590U 98076A 23177.71525640 .00000080 00000+0 70059-4 0 9993 2 25590 82.9346 289.4929 0030241 247.0263 224.6276 13.73064571227896

Satellite not in orbit

COSMOS 2361 [-]